EZY215 EGGD-EGPH

Flight info

Callsign EZY215
Flight time 0h 59m
Altitude 26000
Route BCN P69 DIZIM DCT KISWO/N0375F270 DCT AVTIC DCT ANJAK/N0379F280 N38 NOKIN UP16 RIBEL DCT INPIP
Aircraft A320/M-SDE3FGHIRWY/LB1

Departure

Time 2026-04-20 20:07
Airport Bristol Airport (EGGD)

Arrival

Time 2026-04-20 21:06
Airport Edinburgh Airport (EGPH)
Time Latitude Longitude Altitude Speed Heading
2026-04-20 19:46 51.38542 -2.71545 612 ft 0 kts 356°
2026-04-20 19:57 51.38536 -2.71544 623 ft 2 kts 356°
2026-04-20 19:57 51.38517 -2.71542 618 ft 2 kts 356°
2026-04-20 19:57 51.38513 -2.71542 620 ft 0 kts 356°
2026-04-20 19:58 51.38505 -2.71541 623 ft 2 kts 322°
2026-04-20 19:58 51.38492 -2.71523 619 ft 2 kts 320°
2026-04-20 19:58 51.38484 -2.71502 624 ft 1 kts 263°
2026-04-20 19:58 51.38484 -2.71501 624 ft 0 kts 263°
2026-04-20 20:01 51.38484 -2.71502 611 ft 0 kts 263°
2026-04-20 20:01 51.38483 -2.71521 625 ft 3 kts 266°
2026-04-20 20:01 51.38479 -2.71601 619 ft 14 kts 264°
2026-04-20 20:01 51.38432 -2.71800 606 ft 26 kts 266°
2026-04-20 20:02 51.38426 -2.72145 613 ft 36 kts 265°
2026-04-20 20:02 51.38409 -2.72584 621 ft 43 kts 266°
2026-04-20 20:02 51.38393 -2.73048 605 ft 27 kts 267°
2026-04-20 20:02 51.38388 -2.73158 608 ft 0 kts 266°
2026-04-20 20:04 51.38386 -2.73207 610 ft 17 kts 266°
2026-04-20 20:05 51.38286 -2.73337 619 ft 20 kts 171°
2026-04-20 20:05 51.38215 -2.73260 626 ft 0 kts 89°
2026-04-20 20:06 51.38219 -2.73182 632 ft 35 kts 86°
2026-04-20 20:06 51.38253 -2.72363 635 ft 109 kts 86°
2026-04-20 20:06 51.38302 -2.70926 948 ft 136 kts 87°
2026-04-20 20:07 51.38340 -2.69409 1778 ft 134 kts 86°
2026-04-20 20:07 51.38387 -2.67865 2353 ft 148 kts 86°
2026-04-20 20:07 51.38429 -2.66093 2760 ft 170 kts 91°
2026-04-20 20:07 51.38332 -2.64074 3102 ft 194 kts 91°
2026-04-20 20:08 51.38413 -2.61811 3521 ft 220 kts 82°
2026-04-20 20:08 51.38633 -2.59266 4183 ft 240 kts 81°
2026-04-20 20:08 51.39060 -2.56641 5128 ft 249 kts 66°
2026-04-20 20:08 51.40162 -2.54492 6113 ft 258 kts 33°
2026-04-20 20:09 51.41902 -2.53725 7105 ft 268 kts 359°
2026-04-20 20:09 51.43669 -2.54710 8094 ft 276 kts 324°
2026-04-20 20:09 51.45081 -2.56813 9181 ft 278 kts 319°
2026-04-20 20:09 51.46745 -2.58369 10197 ft 279 kts 340°
2026-04-20 20:10 51.48656 -2.59286 10778 ft 299 kts 346°
2026-04-20 20:10 51.50720 -2.60012 11401 ft 312 kts 347°
2026-04-20 20:10 51.52882 -2.60745 12247 ft 318 kts 346°
2026-04-20 20:10 51.55022 -2.61540 13135 ft 322 kts 345°
2026-04-20 20:11 51.57201 -2.62441 14022 ft 325 kts 343°
2026-04-20 20:11 51.59392 -2.63428 14810 ft 328 kts 342°
2026-04-20 20:11 51.61593 -2.64469 15617 ft 330 kts 341°
2026-04-20 20:11 51.63800 -2.65538 16411 ft 332 kts 341°
2026-04-20 20:12 51.66018 -2.66621 17222 ft 335 kts 340°
2026-04-20 20:12 51.68256 -2.67712 18029 ft 337 kts 340°
2026-04-20 20:12 51.70504 -2.68802 18787 ft 339 kts 340°
2026-04-20 20:13 51.75054 -2.71008 20127 ft 344 kts 339°
2026-04-20 20:13 51.77356 -2.72121 20779 ft 347 kts 339°
2026-04-20 20:13 51.79646 -2.73226 21468 ft 349 kts 339°
2026-04-20 20:13 51.82008 -2.74368 22142 ft 351 kts 338°
2026-04-20 20:14 51.84319 -2.75486 22788 ft 353 kts 338°
2026-04-20 20:14 51.86680 -2.76632 23428 ft 355 kts 338°
2026-04-20 20:14 51.89055 -2.77785 24034 ft 358 kts 337°
2026-04-20 20:14 51.91443 -2.78946 24550 ft 360 kts 337°
2026-04-20 20:15 51.93850 -2.80115 25050 ft 362 kts 337°
2026-04-20 20:15 51.96232 -2.81271 25589 ft 364 kts 336°
2026-04-20 20:15 51.98705 -2.82475 26082 ft 366 kts 336°
2026-04-20 20:15 52.01147 -2.83665 26271 ft 367 kts 336°
2026-04-20 20:16 52.03546 -2.84825 26285 ft 351 kts 336°
2026-04-20 20:16 52.05840 -2.85925 26284 ft 338 kts 336°
2026-04-20 20:16 52.08048 -2.86996 26284 ft 334 kts 336°
2026-04-20 20:16 52.10273 -2.88087 26285 ft 333 kts 335°
2026-04-20 20:17 52.12488 -2.89183 26288 ft 333 kts 335°
2026-04-20 20:17 52.14703 -2.90280 26287 ft 333 kts 335°
2026-04-20 20:17 52.16915 -2.91374 26291 ft 333 kts 335°
2026-04-20 20:17 52.19131 -2.92468 26290 ft 333 kts 335°
2026-04-20 20:18 52.21348 -2.93558 26291 ft 333 kts 335°
2026-04-20 20:18 52.23563 -2.94651 26292 ft 333 kts 335°
2026-04-20 20:18 52.25747 -2.95733 26324 ft 333 kts 336°
2026-04-20 20:18 52.27968 -2.96835 26291 ft 333 kts 335°
2026-04-20 20:19 52.30187 -2.97935 26293 ft 333 kts 335°
2026-04-20 20:19 52.32401 -2.99032 26288 ft 333 kts 335°
2026-04-20 20:19 52.34619 -3.00131 26290 ft 333 kts 335°
2026-04-20 20:19 52.36839 -3.01236 26291 ft 333 kts 335°
2026-04-20 20:20 52.39056 -3.02337 26284 ft 333 kts 335°
2026-04-20 20:20 52.41275 -3.03438 26285 ft 333 kts 335°
2026-04-20 20:20 52.43494 -3.04542 26286 ft 333 kts 335°
2026-04-20 20:20 52.45685 -3.05636 26285 ft 333 kts 335°
2026-04-20 20:21 52.47903 -3.06746 26291 ft 333 kts 335°
2026-04-20 20:21 52.50122 -3.07860 26308 ft 334 kts 337°
2026-04-20 20:21 52.52351 -3.08977 26292 ft 335 kts 337°
2026-04-20 20:21 52.54585 -3.10097 26283 ft 336 kts 337°
2026-04-20 20:22 52.56824 -3.11217 26280 ft 337 kts 337°
2026-04-20 20:22 52.59073 -3.12337 26277 ft 338 kts 337°
2026-04-20 20:22 52.61333 -3.13406 26277 ft 341 kts 341°
2026-04-20 20:22 52.63681 -3.13880 26281 ft 349 kts 352°
2026-04-20 20:23 52.66125 -3.13735 26280 ft 352 kts 355°
2026-04-20 20:23 52.68573 -3.13535 26280 ft 353 kts 355°
2026-04-20 20:23 52.71027 -3.13146 26281 ft 359 kts
2026-04-20 20:23 52.73452 -3.11982 26305 ft 368 kts 17°
2026-04-20 20:24 52.75784 -3.10195 26302 ft 370 kts 20°
2026-04-20 20:24 52.78114 -3.08368 26289 ft 370 kts 20°
2026-04-20 20:24 52.80444 -3.06546 26297 ft 370 kts 19°
2026-04-20 20:24 52.82775 -3.04723 26289 ft 371 kts 20°
2026-04-20 20:25 52.85103 -3.02894 26301 ft 371 kts 20°
2026-04-20 20:25 52.87431 -3.01064 26322 ft 371 kts 20°
2026-04-20 20:25 52.89734 -2.99282 26312 ft 369 kts 18°
2026-04-20 20:25 52.92131 -2.97796 26318 ft 367 kts 15°
2026-04-20 20:26 52.94526 -2.96340 26317 ft 367 kts 15°
2026-04-20 20:26 52.96924 -2.94879 26323 ft 367 kts 15°
2026-04-20 20:26 52.99320 -2.93420 26337 ft 367 kts 16°
2026-04-20 20:26 53.01718 -2.91956 26337 ft 367 kts 16°
2026-04-20 20:27 53.04114 -2.90485 26321 ft 367 kts 16°
2026-04-20 20:27 53.06507 -2.89011 26325 ft 367 kts 16°
2026-04-20 20:27 53.08899 -2.87537 26326 ft 367 kts 16°
2026-04-20 20:27 53.11293 -2.86057 26319 ft 367 kts 16°
2026-04-20 20:28 53.13651 -2.84596 26326 ft 367 kts 16°
2026-04-20 20:28 53.16041 -2.83112 26320 ft 367 kts 16°
2026-04-20 20:28 53.18436 -2.81631 26321 ft 367 kts 16°
2026-04-20 20:28 53.20825 -2.80154 26310 ft 367 kts 16°
2026-04-20 20:29 53.23217 -2.78669 26322 ft 367 kts 17°
2026-04-20 20:29 53.25604 -2.77181 26327 ft 367 kts 17°
2026-04-20 20:29 53.27996 -2.75690 26324 ft 367 kts 17°
2026-04-20 20:29 53.30385 -2.74199 26327 ft 367 kts 17°
2026-04-20 20:30 53.32772 -2.72711 26325 ft 367 kts 17°
2026-04-20 20:30 53.35134 -2.71236 26328 ft 367 kts 17°
2026-04-20 20:30 53.37521 -2.69744 26329 ft 367 kts 17°
2026-04-20 20:30 53.39909 -2.68248 26331 ft 367 kts 17°
2026-04-20 20:31 53.42297 -2.66747 26333 ft 367 kts 17°
2026-04-20 20:31 53.44682 -2.65248 26327 ft 367 kts 17°
2026-04-20 20:31 53.47073 -2.63747 26328 ft 367 kts 17°
2026-04-20 20:31 53.49459 -2.62248 26325 ft 367 kts 17°
2026-04-20 20:32 53.51850 -2.60746 26327 ft 367 kts 17°
2026-04-20 20:32 53.54241 -2.59243 26333 ft 367 kts 17°
2026-04-20 20:32 53.56633 -2.57731 26341 ft 367 kts 17°
2026-04-20 20:32 53.58984 -2.56239 26341 ft 367 kts 17°
2026-04-20 20:33 53.61371 -2.54722 26338 ft 366 kts 17°
2026-04-20 20:33 53.63739 -2.53219 26339 ft 366 kts 17°
2026-04-20 20:33 53.66142 -2.51696 26341 ft 366 kts 17°
2026-04-20 20:33 53.68528 -2.50182 26337 ft 366 kts 17°
2026-04-20 20:34 53.70912 -2.48663 26342 ft 366 kts 17°
2026-04-20 20:34 53.73297 -2.47138 26353 ft 366 kts 18°
2026-04-20 20:34 53.75676 -2.45618 26351 ft 366 kts 18°
2026-04-20 20:34 53.78063 -2.44094 26352 ft 366 kts 18°
2026-04-20 20:35 53.80448 -2.42574 26349 ft 366 kts 18°
2026-04-20 20:35 53.82831 -2.41054 26353 ft 366 kts 18°
2026-04-20 20:35 53.85218 -2.39530 26354 ft 366 kts 18°
2026-04-20 20:35 53.87601 -2.38005 26355 ft 366 kts 18°
2026-04-20 20:36 53.89984 -2.36473 26353 ft 366 kts 18°
2026-04-20 20:36 53.92371 -2.34936 26355 ft 366 kts 18°
2026-04-20 20:36 53.94719 -2.33420 26356 ft 366 kts 18°
2026-04-20 20:36 53.97101 -2.31883 26355 ft 366 kts 17°
2026-04-20 20:37 53.99553 -2.30778 26373 ft 363 kts
2026-04-20 20:37 54.02061 -2.30549 26372 ft 360 kts 354°
2026-04-20 20:37 54.04525 -2.31186 26374 ft 358 kts 343°
2026-04-20 20:37 54.06862 -2.32601 26365 ft 356 kts 336°
2026-04-20 20:38 54.09158 -2.34203 26364 ft 357 kts 336°
2026-04-20 20:38 54.11457 -2.35794 26363 ft 357 kts 336°
2026-04-20 20:38 54.13756 -2.37378 26367 ft 357 kts 336°
2026-04-20 20:38 54.16059 -2.38966 26363 ft 357 kts 336°
2026-04-20 20:39 54.18329 -2.40534 26367 ft 357 kts 336°
2026-04-20 20:39 54.20627 -2.42127 26365 ft 357 kts 336°
2026-04-20 20:39 54.22929 -2.43727 26374 ft 357 kts 336°
2026-04-20 20:39 54.25229 -2.45328 26369 ft 357 kts 337°
2026-04-20 20:40 54.27530 -2.46937 26367 ft 358 kts 337°
2026-04-20 20:40 54.29832 -2.48548 26373 ft 358 kts 337°
2026-04-20 20:40 54.32137 -2.50164 26382 ft 358 kts 336°
2026-04-20 20:40 54.34438 -2.51777 26379 ft 357 kts 337°
2026-04-20 20:41 54.36712 -2.53370 26378 ft 358 kts 337°
2026-04-20 20:41 54.39016 -2.54985 26378 ft 358 kts 336°
2026-04-20 20:41 54.41320 -2.56599 26378 ft 358 kts 337°
2026-04-20 20:41 54.43621 -2.58213 26383 ft 357 kts 337°
2026-04-20 20:42 54.45925 -2.59837 26380 ft 358 kts 336°
2026-04-20 20:42 54.48229 -2.61467 26378 ft 358 kts 337°
2026-04-20 20:42 54.50535 -2.63097 26373 ft 359 kts 337°
2026-04-20 20:42 54.52847 -2.64731 26373 ft 359 kts 337°
2026-04-20 20:43 54.55157 -2.66369 26368 ft 360 kts 337°
2026-04-20 20:43 54.57442 -2.67997 26368 ft 361 kts 337°
2026-04-20 20:43 54.59766 -2.69653 26371 ft 361 kts 336°
2026-04-20 20:43 54.62082 -2.71301 26383 ft 360 kts 336°
2026-04-20 20:44 54.64396 -2.72947 26382 ft 360 kts 336°
2026-04-20 20:44 54.66714 -2.74598 26381 ft 360 kts 336°
2026-04-20 20:44 54.69029 -2.76250 26382 ft 360 kts 336°
2026-04-20 20:44 54.71343 -2.77901 26389 ft 360 kts 337°
2026-04-20 20:45 54.73659 -2.79555 26389 ft 360 kts 337°
2026-04-20 20:45 54.75947 -2.81194 26380 ft 361 kts 337°
2026-04-20 20:45 54.78274 -2.82866 26368 ft 362 kts 337°
2026-04-20 20:45 54.80604 -2.84541 26368 ft 363 kts 337°
2026-04-20 20:46 54.82938 -2.86220 26373 ft 363 kts 337°
2026-04-20 20:46 54.85272 -2.87902 26371 ft 364 kts 337°
2026-04-20 20:46 54.87608 -2.89585 26382 ft 363 kts 337°
2026-04-20 20:46 54.89927 -2.91254 26022 ft 359 kts 337°
2026-04-20 20:47 54.92246 -2.92926 25376 ft 361 kts 337°
2026-04-20 20:47 54.94565 -2.94604 24876 ft 360 kts 337°
2026-04-20 20:47 54.96870 -2.96275 24375 ft 358 kts 338°
2026-04-20 20:47 54.99134 -2.97915 23854 ft 357 kts 339°
2026-04-20 20:48 55.01427 -2.99576 23321 ft 356 kts 338°
2026-04-20 20:48 55.03701 -3.01227 22827 ft 353 kts 338°
2026-04-20 20:48 55.05962 -3.02874 22341 ft 351 kts 338°
2026-04-20 20:48 55.08206 -3.04515 21854 ft 349 kts 339°
2026-04-20 20:49 55.10444 -3.06151 21364 ft 348 kts 339°
2026-04-20 20:49 55.12672 -3.07779 20860 ft 347 kts 339°
2026-04-20 20:49 55.14891 -3.09399 20387 ft 346 kts 339°
2026-04-20 20:49 55.17121 -3.11028 19804 ft 348 kts 339°
2026-04-20 20:50 55.19331 -3.12643 19240 ft 350 kts 339°
2026-04-20 20:50 55.21588 -3.14298 18654 ft 353 kts 339°
2026-04-20 20:50 55.23860 -3.15968 18016 ft 355 kts 339°
2026-04-20 20:50 55.26127 -3.17640 17559 ft 351 kts 339°
2026-04-20 20:51 55.28397 -3.19225 17053 ft 349 kts 345°
2026-04-20 20:51 55.30739 -3.20040 16678 ft 337 kts 359°
2026-04-20 20:51 55.33010 -3.19962 16221 ft 320 kts
2026-04-20 20:51 55.35209 -3.19612 15573 ft 315 kts
2026-04-20 20:52 55.37381 -3.19268 14923 ft 311 kts
2026-04-20 20:52 55.39524 -3.18928 14277 ft 308 kts
2026-04-20 20:52 55.41647 -3.18594 13574 ft 304 kts
2026-04-20 20:52 55.43716 -3.18272 12893 ft 301 kts
2026-04-20 20:53 55.45815 -3.17944 12190 ft 297 kts
2026-04-20 20:53 55.47833 -3.17629 11576 ft 292 kts
2026-04-20 20:53 55.49841 -3.17317 10898 ft 289 kts
2026-04-20 20:53 55.51814 -3.17018 10383 ft 280 kts
2026-04-20 20:54 55.53802 -3.16735 9325 ft 292 kts
2026-04-20 20:54 55.55755 -3.17348 8791 ft 285 kts 338°
2026-04-20 20:54 55.57428 -3.19167 8126 ft 281 kts 326°
2026-04-20 20:54 55.58993 -3.21218 7453 ft 278 kts 324°
2026-04-20 20:55 55.60526 -3.23269 6816 ft 274 kts 324°
2026-04-20 20:55 55.62032 -3.25302 6171 ft 270 kts 324°
2026-04-20 20:55 55.63502 -3.27296 5994 ft 272 kts 324°
2026-04-20 20:55 55.65001 -3.29328 5977 ft 271 kts 324°
2026-04-20 20:56 55.66499 -3.31360 5987 ft 272 kts 324°
2026-04-20 20:56 55.68001 -3.33401 5994 ft 272 kts 324°
2026-04-20 20:56 55.69502 -3.35441 5986 ft 272 kts 324°
2026-04-20 20:56 55.71004 -3.37485 5991 ft 273 kts 324°
2026-04-20 20:57 55.72515 -3.39534 5990 ft 273 kts 324°
2026-04-20 20:57 55.74029 -3.41583 5991 ft 273 kts 324°
2026-04-20 20:57 55.75533 -3.43632 5998 ft 273 kts 324°
2026-04-20 20:57 55.76847 -3.46053 5885 ft 274 kts 303°
2026-04-20 20:58 55.77616 -3.49092 5407 ft 275 kts 291°
2026-04-20 20:58 55.78257 -3.52276 4973 ft 273 kts 290°
2026-04-20 20:58 55.78860 -3.55471 4499 ft 272 kts 289°
2026-04-20 20:58 55.79449 -3.58650 4075 ft 270 kts 289°
2026-04-20 20:59 55.80036 -3.61820 3994 ft 271 kts 289°
2026-04-20 20:59 55.80625 -3.65013 3997 ft 272 kts 289°
2026-04-20 20:59 55.81215 -3.68210 3997 ft 272 kts 289°
2026-04-20 20:59 55.81803 -3.71402 3996 ft 272 kts 289°
2026-04-20 21:00 55.82428 -3.74578 3991 ft 271 kts 297°
2026-04-20 21:00 55.83556 -3.77163 3675 ft 263 kts 325°
2026-04-20 21:00 55.85182 -3.78441 3210 ft 253 kts 355°
2026-04-20 21:00 55.86849 -3.78078 2983 ft 244 kts 27°
2026-04-20 21:01 55.88133 -3.76223 2985 ft 239 kts 58°
2026-04-20 21:01 55.88677 -3.73471 3002 ft 238 kts 84°
2026-04-20 21:01 55.88759 -3.70542 2707 ft 236 kts 89°
2026-04-20 21:01 55.88777 -3.67641 2215 ft 231 kts 89°
2026-04-20 21:02 55.88786 -3.64789 2000 ft 232 kts 89°
2026-04-20 21:02 55.88798 -3.61938 2002 ft 220 kts 89°
2026-04-20 21:02 55.88807 -3.59410 1998 ft 189 kts 89°
2026-04-20 21:02 55.88814 -3.57202 2018 ft 165 kts 89°
2026-04-20 21:03 55.88901 -3.55365 2028 ft 138 kts 75°
2026-04-20 21:03 55.89326 -3.53905 2012 ft 129 kts 62°
2026-04-20 21:03 55.89782 -3.52575 1919 ft 124 kts 62°
2026-04-20 21:03 55.90224 -3.51280 1792 ft 122 kts 62°
2026-04-20 21:04 55.90664 -3.49992 1642 ft 121 kts 62°
2026-04-20 21:04 55.91101 -3.48709 1481 ft 122 kts 62°
2026-04-20 21:04 55.91537 -3.47430 1316 ft 121 kts 60°
2026-04-20 21:04 55.91973 -3.46150 1139 ft 120 kts 61°
2026-04-20 21:05 55.92408 -3.44874 968 ft 121 kts 61°
2026-04-20 21:05 55.92697 -3.44025 854 ft 120 kts 60°
2026-04-20 21:05 55.93272 -3.42335 650 ft 121 kts 60°
2026-04-20 21:05 55.93707 -3.41052 467 ft 122 kts 59°
2026-04-20 21:06 55.94142 -3.39773 307 ft 120 kts 59°
2026-04-20 21:06 55.94574 -3.38510 143 ft 117 kts 60°
2026-04-20 21:06 55.94944 -3.37405 107 ft 70 kts 59°
2026-04-20 21:06 55.95087 -3.36986 110 ft 30 kts 58°
2026-04-20 21:07 55.95167 -3.36750 109 ft 36 kts 58°
2026-04-20 21:07 55.95254 -3.36432 102 ft 18 kts 109°
2026-04-20 21:07 55.95182 -3.36339 102 ft 8 kts 145°
2026-04-20 21:07 55.95171 -3.36326 103 ft 7 kts 145°
2026-04-20 21:08 55.95151 -3.36300 104 ft 5 kts 143°
2026-04-20 21:08 55.95113 -3.36094 104 ft 21 kts 108°
2026-04-20 21:08 55.95075 -3.35931 105 ft 18 kts 120°
2026-04-20 21:08 55.95016 -3.35839 106 ft 6 kts 193°
2026-04-20 21:09 55.94981 -3.35856 107 ft 4 kts 196°
2026-04-20 21:09 55.94930 -3.35836 107 ft 15 kts 141°
2026-04-20 21:09 55.94893 -3.35752 107 ft 8 kts 151°
2026-04-20 21:09 55.94870 -3.35770 107 ft 7 kts 216°
2026-04-20 21:10 55.94841 -3.35799 107 ft 2 kts 209°
2026-04-20 21:10 55.94836 -3.35804 107 ft 1 kts 209°
2026-04-20 21:10 55.94835 -3.35805 107 ft 0 kts 209°